DW7733 Weather Reports


Display with metric or nautical units.
time (UTC)temp
F
wind
direction
speed
MPH
gust
MPH
rain 1hr
in
rain 24hr
in
rain mn
in
humidity
%
barometer
mb
20260903044546 67 132 0.0 2.0 0.00 0.21 0.00 69 1011.7
20260903043044 68 132 1.0 2.0 0.00 0.21 0.00 69 1011.4
20260903041541 68 133 1.0 2.0 0.00 0.21 0.00 69 1010.9
20260903040038 68 132 1.0 2.0 0.00 0.21 0.00 69 1011.0
20260903034537 68 134 1.0 2.0 0.00 0.21 0.21 69 1010.9
20260903033039 68 135 1.0 2.0 0.00 0.21 0.21 68 1010.8
20260903031635 68 139 1.0 2.0 0.00 0.21 0.21 68 1010.3
20260903030036 68 138 0.0 2.0 0.00 0.21 0.21 68 1010.3
20260903024536 68 146 1.0 2.0 0.01 0.21 0.21 68 1010.9
20260903023041 68 144 0.0 2.0 0.01 0.21 0.21 68 1011.2
20260903021534 68 139 2.0 3.0 0.01 0.21 0.21 67 1011.2
20260903020033 68 132 0.0 3.0 0.01 0.21 0.21 67 1011.3
20260903014533 68 147 0.0 4.0 0.01 0.20 0.20 67 1011.8
20260903013033 68 165 0.0 2.0 0.10 0.20 0.20 67 1012.0
20260903011545 68 142 0.0 3.0 0.10 0.20 0.20 67 1011.1
20260903010032 68 140 1.0 3.0 0.10 0.20 0.20 66 1011.5
20260903004530 69 116 0.0 3.0 0.09 0.19 0.19 66 1011.0
20260903003030 68 65 0.0 2.0 0.00 0.10 0.10 66 1011.3
20260903001532 68 135 1.0 3.0 0.01 0.10 0.10 66 1010.7
20260903000028 68 137 0.0 2.0 0.01 0.10 0.10 66 1010.9
20260902234536 68 245 0.0 5.0 0.02 0.10 0.10 66 1010.9
20260902233028 68 236 0.0 3.0 0.03 0.10 0.10 66 1011.4
20260902231538 68 142 0.0 3.0 0.02 0.09 0.09 66 1010.7
20260902230032 68 290 2.0 7.0 0.02 0.09 0.09 67 1011.2
20260902224525 68 295 0.0 1.0 0.00 0.07 0.07 66 1011.5
20260902223026 69 146 0.0 0.0 0.00 0.07 0.07 65 1011.1
20260902221524 69 146 0.0 0.0 0.00 0.07 0.07 66 1010.4
20260902220023 68 133 0.0 5.0 0.07 0.07 0.07 67 1010.5
20260902214522 67 19 4.0 8.0 0.07 0.07 0.07 71 1011.1
20260902213020 67 20 5.0 14.0 0.07 0.07 0.07 74 1011.5
20260902211526 67 332 16.0 23.0 0.07 0.07 0.07 74 1010.4
20260902210017 68 352 26.0 38.0 0.00 0.00 0.00 92 1012.2
20260902204513 82 22 5.0 6.0 0.00 0.00 0.00 81 1010.9
20260902203014 85 278 0.0 1.0 0.00 0.00 0.00 74 1009.6
20260902201507 82 44 0.0 4.0 0.00 0.00 0.00 79 1010.1
20260902200007 81 44 4.0 6.0 0.00 0.00 0.00 81 1010.1
20260902194507 82 42 9.0 12.0 0.00 0.00 0.00 83 1010.4
20260902193003 83 245 0.0 2.0 0.00 0.00 0.00 78 1010.6
20260902191500 84 280 0.0 1.0 0.00 0.00 0.00 78 1010.7
20260902190059 84 256 1.0 3.0 0.00 0.00 0.00 78 1010.8
20260902184601 83 264 0.0 4.0 0.00 0.00 0.00 81 1010.9
20260902183057 83 259 4.0 7.0 0.00 0.00 0.00 75 1010.9
20260902181553 83 257 0.0 1.0 0.00 0.00 0.00 77 1011.0
20260902180112 82 253 0.0 1.0 0.00 0.00 0.00 78 1011.2
20260902174545 81 231 1.0 3.0 0.00 0.00 0.00 83 1011.4
20260902173043 80 262 1.0 3.0 0.00 0.00 0.00 84 1012.0
20260902171542 80 248 3.0 4.0 0.00 0.00 0.00 83 1012.4
20260902170041 79 242 5.0 6.0 0.00 0.00 0.00 85 1012.8
20260902164541 77 237 4.0 5.0 0.00 0.00 0.00 91 1013.0
20260902163040 78 271 1.0 3.0 0.00 0.00 0.00 89 1013.0
20260902161550 78 238 2.0 4.0 0.00 0.00 0.00 89 1012.8
20260902160038 78 238 4.0 5.0 0.00 0.00 0.00 89 1012.9
20260902154536 79 242 5.0 8.0 0.00 0.00 0.00 88 1012.7
20260902153036 79 241 5.0 6.0 0.00 0.00 0.00 87 1012.8
20260902151537 80 263 3.0 6.0 0.00 0.00 0.00 86 1012.6
20260902150032 79 248 5.0 8.0 0.00 0.00 0.00 88 1012.3
20260902144537 78 243 4.0 7.0 0.00 0.00 0.00 92 1012.7
20260902143031 78 235 3.0 7.0 0.00 0.00 0.00 90 1012.6
20260902141530 79 245 2.0 7.0 0.00 0.00 0.00 90 1012.7
20260902140027 79 231 0.0 2.0 0.00 0.00 0.00 91 1012.6
20260902134534 78 233 0.0 3.0 0.00 0.00 0.00 92 1012.5
20260902133023 77 247 0.0 1.0 0.00 0.00 0.00 92 1012.6
20260902131518 76 142 0.0 1.0 0.00 0.00 0.00 92 1012.4
20260902130016 75 148 0.0 2.0 0.00 0.00 0.00 92 1012.3
20260902124517 75 129 0.0 3.0 0.00 0.00 0.00 92 1012.3
20260902123015 75 147 0.0 2.0 0.00 0.00 0.00 92 1012.3
20260902121514 74 141 1.0 3.0 0.00 0.00 0.00 91 1012.2
20260902120014 74 140 0.0 2.0 0.00 0.00 0.00 91 1012.1
20260902114515 74 134 1.0 2.0 0.00 0.00 0.00 92 1012.3
20260902113030 74 150 0.0 2.0 0.00 0.00 0.00 92 1012.6
20260902111519 74 138 0.0 2.0 0.00 0.00 0.00 93 1012.1
20260902110011 74 253 3.0 6.0 0.00 0.00 0.00 92 1012.1
20260902104510 74 236 2.0 4.0 0.00 0.00 0.00 92 1011.8
20260902103015 75 224 2.0 6.0 0.00 0.00 0.00 92 1011.6
20260902101504 75 239 1.0 5.0 0.00 0.00 0.00 92 1011.4
20260902100005 75 217 2.0 4.0 0.00 0.00 0.00 92 1011.5
20260902094501 75 250 3.0 5.0 0.00 0.00 0.00 93 1011.7
20260902093059 74 203 1.0 5.0 0.00 0.00 0.00 88 1011.6
20260902091559 73 147 1.0 4.0 0.00 0.00 0.00 87 1011.6
20260902090059 73 139 0.0 2.0 0.00 0.00 0.00 88 1011.7
20260902084602 73 187 0.0 3.0 0.00 0.00 0.00 83 1011.8
20260902083059 73 165 1.0 4.0 0.00 0.00 0.00 79 1011.8
20260902081602 73 143 1.0 2.0 0.00 0.00 0.00 77 1011.7
20260902080053 73 141 1.0 3.0 0.00 0.00 0.00 77 1011.7
20260902074553 73 132 1.0 2.0 0.00 0.00 0.00 76 1011.7
20260902073056 73 132 1.0 2.0 0.00 0.00 0.00 75 1011.6
20260902071549 73 126 1.0 3.0 0.00 0.00 0.00 74 1011.7
20260902070048 73 147 1.0 2.0 0.00 0.00 0.00 74 1011.8
20260902064552 73 139 1.0 3.0 0.00 0.00 0.00 73 1011.9
20260902063051 74 137 1.0 2.0 0.00 0.00 0.00 73 1011.9
20260902061558 74 134 0.0 2.0 0.00 0.00 0.00 74 1012.1
20260902060042 74 149 1.0 2.0 0.00 0.00 0.00 75 1012.1
20260902054548 74 141 1.0 3.0 0.00 0.00 0.00 75 1012.3
20260902053046 74 153 1.0 3.0 0.00 0.00 0.00 74 1012.4
20260902051539 74 143 1.0 3.0 0.00 0.00 0.00 76 1012.2
20260902050037 74 143 1.0 3.0 0.00 0.00 0.00 76 1012.5